EHI
3 11 32 49 47 33 16 4 0 0 0 0 0 0 0 0 0 0 0 0 0 0 0 0 0 0 0 0 0 0 0 0 0 0 0 0 0 0 0 0 0 0 0
21 25 41 55 52 37 19 7 2 1 0 0 0 0 0 0 0 0 0 0 0 0 0 0 0 0 0 0 0 0 0 0 0 0 0 0 0 0 0 0 0 0 0
52 46 50 59 57 43 26 13 7 4 2 0 0 0 0 0 0 0 0 0 0 0 0 0 0 0 0 0 0 0 0 0 0 0 0 0 0 0 0 0 0 0 0
64 56 55 63 63 53 37 24 15 9 4 1 0 0 0 0 0 0 0 0 0 0 0 0 0 0 0 0 0 0 0 0 0 0 0 0 0 0 0 0 0 0 0
56 55 63 74 74 64 51 38 27 17 8 2 0 0 0 0 0 0 0 0 0 0 0 0 0 0 0 0 0 0 0 0 0 0 0 0 0 0 0 0 0 0 0
53 55 66 79 80 70 59 50 40 25 13 5 1 0 0 0 0 0 0 0 0 0 0 0 0 0 0 0 0 0 0 0 0 0 0 0 0 0 0 0 0 0 0
52 49 57 71 74 67 60 53 42 28 15 9 5 2 1 0 0 0 0 0 0 0 0 0 0 0 0 0 0 0 0 0 0 0 0 0 0 0 0 1 1 0 0
43 38 42 53 57 57 54 47 35 24 15 10 6 4 3 1 0 0 0 0 0 0 0 0 0 0 0 0 0 1 1 1 0 0 0 0 0 0 0 1 2 1 0
27 26 27 30 33 36 38 34 26 18 13 8 5 4 3 1 0 0 0 0 0 0 0 0 0 0 0 0 0 1 2 1 0 0 0 0 0 0 0 1 1 1 0
13 14 15 13 11 13 17 20 19 15 10 5 3 3 2 1 0 0 0 0 0 0 0 0 0 0 0 0 0 1 2 1 0 0 0 0 1 1 1 1 1 0 0
6 6 6 5 3 2 5 11 14 12 8 4 2 1 1 0 0 1 1 1 0 0 0 0 0 0 0 1 0 0 1 1 0 0 0 1 3 5 3 2 1 0 0
7 5 3 2 2 2 3 7 9 8 6 3 1 0 0 0 0 2 3 2 1 0 0 0 1 0 0 0 0 0 0 0 0 0 1 4 10 12 8 5 3 1 0
17 13 8 5 3 3 4 4 3 3 3 1 0 0 0 0 0 1 1 1 0 0 0 0 0 0 0 0 0 0 0 0 0 0 1 7 16 19 12 7 5 2 0
36 28 18 13 9 7 6 3 1 1 1 0 0 0 0 0 0 0 0 0 0 0 0 0 0 0 0 0 0 0 0 1 0 0 1 6 15 20 15 9 5 2 0
52 41 29 21 14 9 6 3 1 0 0 0 0 0 0 0 0 0 0 0 0 0 0 0 0 0 0 0 0 0 0 0 0 0 0 3 9 15 15 11 6 3 1
55 46 34 22 13 8 5 2 0 0 0 0 0 0 0 0 0 0 0 0 0 0 0 0 0 0 0 0 0 0 0 0 0 0 0 1 4 9 12 12 9 6 4
48 40 28 17 9 5 3 1 0 0 0 0 0 0 0 0 0 0 0 0 0 0 0 0 0 0 0 0 0 0 0 0 0 0 0 0 1 4 7 9 9 7 6
35 28 17 10 6 3 2 1 0 0 0 0 0 0 0 0 0 0 0 0 0 0 0 0 0 0 0 0 0 0 0 0 0 0 0 0 0 1 2 4 4 4 4
21 16 9 5 4 3 2 1 0 0 0 0 0 0 0 0 0 0 0 0 0 0 0 0 0 0 0 0 0 0 0 0 0 0 0 0 0 0 0 0 0 0 1
11 8 5 3 3 2 2 1 0 0 0 0 0 0 0 0 0 0 0 0 0 0 0 0 0 0 0 0 0 0 0 0 0 0 0 0 0 0 0 0 0 0 0
5 4 3 2 1 1 1 0 0 0 0 0 0 0 0 0 0 0 0 0 0 0 0 0 0 0 0 0 0 0 0 0 0 0 0 0 0 0 0 0 0 0 0
3 2 1 1 0 0 0 0 0 0 0 0 0 0 0 0 0 0 0 0 0 0 0 0 0 0 0 0 0 0 0 0 0 0 0 0 0 0 0 0 0 0 0
1 0 0 0 0 0 0 0 0 0 0 0 0 0 0 0 0 0 0 0 0 0 0 0 0 0 0 0 0 0 0 0 0 0 0 0 0 0 0 0 0 0 0
0 0 1 1 0 0 0 0 0 0 0 0 0 0 0 0 0 0 0 0 0 0 0 0 0 0 0 0 0 0 0 0 0 0 0 0 0 0 0 0 0 0 0
0 1 2 2 1 0 0 0 0 0 0 0 0 0 0 0 0 0 0 0 0 0 0 0 0 0 0 0 0 0 0 0 0 0 0 0 0 0 0 0 0 0 0
1 2 3 3 1 0 0 0 0 0 0 0 0 0 0 0 0 0 0 0 0 0 0 0 0 0 0 0 0 0 0 0 0 0 0 0 0 0 0 0 0 0 0
Wind_Speed
7 8 14 16 17 16 16 15 15 15 15 15 15 15 15 15 15 14 14 13 13 12 12 11 10 10 10 10 10 10 9 9 9 9 10 11 11 13 14 15 15 12 17
11 10 15 15 16 16 15 15 15 15 15 15 15 15 14 14 14 13 13 12 12 11 11 10 10 9 9 9 9 8 8 7 8 9 10 10 11 12 14 15 15 11 17
14 11 13 15 15 15 15 15 15 15 15 15 14 14 14 14 13 12 12 11 11 10 10 9 9 9 8 8 8 7 6 6 6 8 9 5 6 11 14 15 16 16 16
14 9 12 16 15 15 15 15 15 15 15 15 14 14 13 13 12 12 11 10 10 10 9 9 8 8 7 7 6 6 5 5 4 5 4 3 5 12 14 15 15 15 15
12 9 12 17 17 16 15 14 14 15 15 14 14 13 13 12 12 11 10 9 9 9 8 8 8 7 6 6 5 4 4 4 4 4 4 4 5 11 14 14 15 15 14
11 8 12 17 17 17 16 15 15 15 15 14 13 13 12 11 11 10 9 8 8 8 8 7 7 6 6 4 3 2 3 4 4 4 5 5 4 11 14 14 14 14 14
11 8 11 17 17 17 16 16 15 15 14 14 13 12 11 10 9 9 8 8 8 7 7 7 7 6 5 4 2 1 2 4 3 3 4 4 6 12 13 14 14 14 13
13 9 10 16 17 17 16 15 15 14 13 12 11 11 10 9 8 8 7 7 7 7 7 6 7 7 6 4 3 1 1 2 4 3 4 4 8 11 13 13 13 13 13
12 10 7 8 11 15 15 14 14 13 12 10 9 8 8 7 7 7 7 7 7 7 7 7 7 7 7 6 5 3 2 1 2 2 5 4 9 11 13 13 13 13 13
9 9 8 7 6 6 7 12 12 11 10 8 7 6 5 4 4 5 6 7 8 8 8 8 8 8 8 7 6 5 4 1 1 2 2 5 11 13 14 14 13 13 13
9 7 7 7 6 5 5 8 8 8 7 5 3 3 2 1 0 2 5 8 9 9 9 9 9 8 8 7 8 7 5 1 1 2 3 8 12 14 14 14 13 13 13
9 7 6 7 6 5 5 4 3 3 3 3 2 2 2 1 1 2 2 4 7 7 8 8 8 7 6 3 5 7 2 3 2 2 4 12 14 15 15 15 14 14 14
9 8 6 6 6 5 4 4 2 2 3 3 4 3 3 3 2 3 1 2 2 2 2 3 3 3 3 3 3 3 4 3 2 2 4 13 15 16 16 15 15 15 15
10 8 7 7 7 6 5 4 4 3 3 3 3 4 3 3 3 3 2 2 1 1 1 1 1 3 3 3 4 4 4 3 2 2 4 13 16 16 16 16 15 15 15
11 8 6 7 7 6 5 4 5 4 3 4 3 4 5 3 3 3 3 2 2 1 0 1 1 2 2 2 3 3 4 4 4 4 3 12 16 16 16 16 16 16 16
11 8 6 7 7 7 5 5 4 4 4 4 3 4 5 4 3 4 4 3 3 2 1 0 1 1 1 1 2 2 3 3 4 4 4 7 14 16 16 16 17 17 17
10 8 7 7 6 7 7 6 4 4 4 4 3 4 4 4 4 3 3 4 3 3 3 2 2 1 1 1 2 2 2 2 3 4 4 4 5 12 16 16 16 16 17
9 8 6 7 7 6 5 5 4 4 4 3 3 3 4 4 4 4 4 4 4 4 3 3 3 2 2 2 2 2 2 2 3 4 4 4 4 5 10 16 16 16 17
8 7 6 6 6 6 5 4 4 4 4 3 3 3 3 4 5 4 3 3 4 4 4 3 3 2 2 3 3 2 2 2 3 4 5 6 6 6 6 10 16 16 18
7 7 7 6 6 5 4 4 3 3 3 2 3 3 4 3 4 4 3 4 5 4 4 3 3 3 2 2 3 3 3 3 3 4 5 5 5 7 7 7 7 11 17
7 7 6 6 5 4 3 3 3 2 2 2 2 3 4 3 4 4 3 3 4 4 4 4 3 4 3 3 3 4 4 3 3 3 3 3 4 5 6 7 6 5 6
8 7 7 7 6 5 3 3 2 3 2 2 2 3 3 4 4 4 4 3 3 3 5 5 4 3 3 4 2 2 4 5 4 3 3 2 2 2 3 6 6 6 5
9 9 8 7 6 6 5 3 2 3 2 2 1 1 2 3 4 4 4 3 3 3 3 3 3 3 2 3 2 2 2 2 4 4 4 4 4 2 2 2 4 6 6
11 9 8 8 7 6 5 5 4 3 2 3 2 2 2 3 3 4 4 4 3 2 2 2 2 2 2 2 2 1 1 3 1 4 4 4 5 4 4 3 3 3 4
12 10 9 8 7 7 6 7 6 4 3 2 2 2 2 1 2 4 5 4 3 2 2 1 1 2 1 1 1 1 1 1 1 1 3 5 5 3 3 4 3 3 3
11 9 9 9 8 7 7 7 7 7 5 4 3 2 1 1 1 4 5 4 3 2 2 1 0 1 0 0 0 0 0 0 1 0 2 3 4 4 4 3 3 3 3
Wind_Direction
148 150 139 133 131 129 127 125 122 120 117 115 113 112 112 111 110 110 110 109 107 105 103 101 99 95 94 95 95 95 95 98 100 104 107 108 113 117 118 120 117 114 118
144 144 135 131 130 130 130 128 128 127 125 123 122 121 121 119 118 117 117 115 113 109 107 104 101 98 96 97 95 94 92 92 96 101 103 107 112 116 117 117 118 123 121
133 133 130 128 127 128 130 130 129 128 128 128 128 127 127 126 126 125 124 123 120 117 114 110 106 103 101 98 95 92 88 86 90 99 102 96 108 115 118 119 120 121 122
129 128 129 126 125 126 128 128 129 129 130 130 130 130 131 132 132 131 130 130 128 125 123 119 115 111 108 102 94 86 80 75 77 104 116 115 112 119 121 122 123 123 123
123 124 130 124 122 122 123 123 125 127 129 130 130 131 133 135 136 136 136 136 135 134 133 129 125 122 118 110 97 81 64 48 50 91 111 108 108 125 126 127 127 126 126
121 122 129 124 122 121 122 123 124 126 128 130 131 134 136 137 138 140 141 141 142 142 140 139 139 136 132 125 112 81 42 24 50 103 121 124 125 133 134 134 133 132 131
125 124 127 126 124 123 124 124 126 127 129 132 134 136 139 140 142 145 148 149 151 151 152 152 153 154 152 151 149 86 16 6 77 125 142 140 142 141 141 140 138 137 136
131 128 129 130 129 128 128 128 129 131 133 135 137 140 143 146 150 155 161 163 166 165 164 168 168 169 173 182 198 238 331 3 79 124 147 151 154 149 148 146 144 145 143
132 130 129 133 132 133 134 134 135 136 138 140 143 146 151 156 163 171 177 180 180 179 179 183 186 186 190 198 214 237 264 343 78 130 162 163 161 156 155 154 153 153 153
133 135 134 130 128 129 135 139 140 140 140 142 146 149 152 162 180 201 200 198 198 196 195 196 201 201 200 203 215 232 244 280 111 154 163 178 170 164 164 164 163 163 163
138 140 138 135 133 132 137 141 138 136 132 129 135 133 121 89 274 242 227 215 213 209 207 206 209 210 209 212 219 227 235 203 177 167 176 187 180 175 174 173 172 172 173
148 149 144 144 145 145 142 121 112 103 89 82 68 69 59 38 4 352 283 238 226 221 219 218 217 216 211 209 230 233 220 210 208 191 196 192 189 185 181 181 180 180 180
145 136 126 135 140 138 123 121 103 91 86 80 71 72 66 51 26 19 8 333 301 255 232 235 226 215 200 195 213 220 216 215 212 208 207 202 195 192 188 186 186 185 185
123 122 121 122 121 119 116 112 109 104 99 91 70 70 69 53 36 19 10 351 347 331 246 232 223 220 210 206 212 221 216 207 210 207 221 212 199 196 195 193 192 192 191
121 123 125 121 120 119 113 117 113 114 111 99 76 63 71 62 40 21 10 9 2 353 233 218 224 221 218 219 221 218 215 209 208 210 224 215 203 201 201 200 198 198 198
129 130 129 124 123 118 116 116 119 118 114 100 89 79 74 69 50 32 22 16 7 360 343 243 245 236 241 244 256 244 228 218 213 213 223 222 214 208 208 208 206 204 204
137 136 135 129 119 116 118 123 123 124 118 112 106 88 81 76 60 48 30 14 1 3 13 25 23 36 25 342 286 269 247 237 228 222 217 216 218 218 216 215 214 210 209
136 134 138 130 122 119 123 125 124 124 123 126 116 96 87 81 70 57 39 17 7 23 27 40 41 43 30 13 321 293 282 272 258 242 225 217 214 220 222 222 220 217 216
141 138 132 131 133 129 126 123 120 120 126 137 125 111 100 87 75 69 51 26 25 32 24 24 40 44 25 354 313 296 293 276 267 259 243 226 215 214 215 225 224 222 221
139 138 138 138 138 128 114 102 93 97 119 138 140 137 121 99 84 78 63 38 35 35 21 18 26 28 27 344 330 332 304 288 279 262 252 242 222 217 215 221 224 228 226
141 143 151 148 152 134 121 122 123 137 152 156 172 154 138 119 100 89 73 52 44 42 27 19 23 22 8 2 17 344 331 328 316 290 269 252 238 227 214 215 214 216 225
158 160 163 162 161 155 152 157 159 152 160 166 167 159 159 141 133 118 102 82 60 48 33 33 40 35 3 18 39 23 350 342 337 341 344 326 278 249 226 221 214 212 212
170 176 176 178 173 171 161 133 98 76 68 76 112 181 197 169 152 134 125 110 83 73 53 47 55 65 23 355 35 85 65 315 313 323 347 2 349 322 283 253 225 218 212
185 184 181 182 181 178 162 148 146 146 156 181 181 196 213 194 171 155 140 127 109 96 79 50 73 75 71 13 357 36 167 197 253 318 326 343 344 340 322 300 268 239 220
189 188 186 183 185 181 170 159 148 146 158 161 149 160 201 235 192 169 153 143 132 122 117 83 60 54 81 96 345 340 354 11 94 147 312 327 333 329 324 302 286 270 245
193 190 184 183 188 182 174 165 158 158 164 160 164 177 222 275 183 173 162 158 157 157 165 173 147 22 358 295 262 220 105 359 323 1 281 303 310 305 312 318 312 291 267